Location: ??? ?????
(30.6482°N, 60.5850°E)
Time: 05:07:43
(UTC+00:00)

Cosmos 1340 Rocket - Pass Details

Date: 09 April 2020
Orbit: 529 x 559 km, 81.2° (Epoch: 27 May)

Event Time Altitude Azimuth Distance (km) Brightness Sun altitude
Rises 15:49:49 0° 196° (SSW) 2,726 6.3 -19.0°
Reaches altitude 10° 15:52:01 10° 200° (SSW) 1,833 5.5 -19.4°
Maximum altitude 15:55:59 55° 279° (W) 668 3.5 -20.2°
Drops below altitude 10° 15:59:57 10° 358° (N) 1,832 5.8 -21.0°
Sets 16:02:10 0° 2° (N) 2,725 6.6 -21.4°
